Overview Statistics Trail Chart Weather Telemetry Raw packets
 

This is the latest recevied weather packets stored in our database for station/object KG5MMT-15. If no packets are shown the sender has not sent any weather packets the latest 10 day(s).

<< 25 26 27 28 29 30 31 >>
Time Temp. Humidity Pressure Rain* Wind** Luminosity Snow
1788525162 17.78° C 63% 0 hPa 0 mm - - -
1788524863 18.33° C 65% 0 hPa 0 mm - - -
1788524563 18.33° C 64% 0 hPa 0 mm - - -
1788524263 18.33° C 64% 0 hPa 0 mm - - -
1788523963 18.33° C 62% 0 hPa 0 mm - - -
1788523662 18.33° C 64% 0 hPa 0 mm - - -
1788523363 18.89° C 63% 0 hPa 0 mm - - -
1788523063 18.89° C 60% 0 hPa 0 mm - - -
1788522763 18.33° C 60% 0 hPa 0 mm - - -
1788522463 18.33° C 60% 0 hPa 0 mm - - -
1788522163 18.33° C 62% 0 hPa 0 mm - - -
1788521863 18.89° C 62% 0 hPa 0 mm - - -
1788521563 18.89° C 62% 0 hPa 0 mm - - -
1788521263 18.89° C 60% 0 hPa 0 mm - - -
1788520963 19.44° C 57% 0 hPa 0 mm - - -
1788520663 19.44° C 59% 0 hPa 0 mm - - -
1788520363 19.44° C 58% 0 hPa 0 mm - - -
1788520063 20° C 57% 0 hPa 0 mm - - -
1788519763 20° C 53% 0 hPa 0 mm - - -
1788519463 20° C 53% 0 hPa 0 mm - - -
1788519163 20° C 53% 0 hPa 0 mm - - -
1788518863 20° C 53% 0 hPa 0 mm - - -
1788518563 20° C 54% 0 hPa 0 mm - - -
1788518263 20.56° C 54% 0 hPa 0 mm - - -
1788517963 20.56° C 52% 0 hPa 0 mm - - -

* Rain latest hour (hover to see other rain measurements)
** Current wind speed in m/s (hover to see current wind gust speed)